This is the latest recevied weather packets stored in our database for station/object ke5jzm-1. If no packets are shown the sender has not sent any weather packets the latest 10 day(s).
| Time | Temp. | Humidity | Pressure | Rain* | Wind** | Luminosity | Snow |
|---|---|---|---|---|---|---|---|
| 1778355598 | 24.44° C | 63% | 1012.4 hPa | 3.05 mm | - | 127 W/m² | - |
| 1778355538 | 24.44° C | 63% | 1012.4 hPa | 3.05 mm | - | 123 W/m² | - |
| 1778355478 | 24.44° C | 63% | 1012.5 hPa | 3.05 mm | - | 123 W/m² | - |
| 1778355418 | 24.44° C | 63% | 1012.6 hPa | 3.56 mm | - | 123 W/m² | - |
| 1778355359 | 24.44° C | 63% | 1012.7 hPa | 3.56 mm | - | 123 W/m² | - |
| 1778355299 | 24.44° C | 63% | 1012.7 hPa | 3.81 mm | - | 121 W/m² | - |
| 1778355238 | 24.44° C | 63% | 1012.7 hPa | 4.06 mm | - | 116 W/m² | - |
| 1778355179 | 24.44° C | 63% | 1012.8 hPa | 4.32 mm | - | 110 W/m² | - |
| 1778355118 | 24.44° C | 63% | 1012.7 hPa | 4.57 mm | - | 103 W/m² | - |
| 1778355059 | 24.44° C | 63% | 1012.8 hPa | 4.83 mm | - | 97 W/m² | - |
| 1778354998 | 24.44° C | 63% | 1012.8 hPa | 5.08 mm | - | 89 W/m² | - |
| 1778354939 | 24.44° C | 63% | 1012.8 hPa | 5.08 mm | - | 82 W/m² | - |
| 1778354878 | 24.44° C | 63% | 1012.9 hPa | 5.08 mm | - | 75 W/m² | - |
| 1778354819 | 24.44° C | 63% | 1013 hPa | 5.08 mm | - | 69 W/m² | - |
| 1778354759 | 24.44° C | 63% | 1013 hPa | 5.08 mm | - | 66 W/m² | - |
| 1778354698 | 24.44° C | 63% | 1013 hPa | 5.33 mm | - | 64 W/m² | - |
| 1778354639 | 24.44° C | 63% | 1013 hPa | 5.33 mm | - | 62 W/m² | - |
| 1778354578 | 24.44° C | 63% | 1013 hPa | 5.59 mm | - | 61 W/m² | - |
| 1778354504 | 24.44° C | 63% | 1013.1 hPa | 5.33 mm | - | 62 W/m² | - |
| 1778354442 | 24.44° C | 63% | 1013.1 hPa | 5.59 mm | - | 63 W/m² | - |
| 1778354381 | 24.44° C | 63% | 1013.1 hPa | 5.59 mm | - | 65 W/m² | - |
| 1778354322 | 24.44° C | 63% | 1013.2 hPa | 5.59 mm | - | 65 W/m² | - |
| 1778354262 | 24.44° C | 63% | 1013.1 hPa | 5.84 mm | - | 62 W/m² | - |
| 1778354191 | 24.44° C | 63% | 1013.1 hPa | 5.84 mm | - | 60 W/m² | - |
| 1778354132 | 24.44° C | 63% | 1013.1 hPa | 5.84 mm | - | 60 W/m² | - |
* Rain latest hour (hover to see other rain measurements)
** Current wind speed in m/s (hover to see current wind gust speed)